Printer-friendly version

IAU Minor Planet Center

Minor Planet Center

MPEC 2007-C27 : 2007 CR5

The following Minor Planet Electronic Circular may be linked-to from your own Web pages, but must not otherwise be redistributed electronically.


Read MPEC 2007-C26 Read MPEC 2007-C28


M.P.E.C. 2007-C27                                Issued 2007 Feb. 8, 14:29 UT

     The Minor Planet Electronic Circulars contain information on unusual
         minor planets and routine data on comets.  They are published
   on behalf of Commission 20 of the International Astronomical Union by the
          Minor Planet Center, Smithsonian Astrophysical Observatory,
                          Cambridge, MA 02138, U.S.A.

             Prepared using the Tamkin Foundation Computer Network

                              MPC@CFA.HARVARD.EDU
          URL http://cfa-www.harvard.edu/iau/mpc.html  ISSN 1523-6714

                                   2007 CR5

Observations:
     K07C05R  C2007 02 08.23174 09 14 00.49 +15 46 51.5          17.3 V EC027G96
     K07C05R* C2007 02 08.23855 09 14 14.10 +15 51 30.8          17.4 V EC027703
     K07C05R  C2007 02 08.23951 09 14 16.02 +15 52 08.4          17.3 V EC027G96
     K07C05R  C2007 02 08.23977 09 14 16.51 +15 52 19.3          17.3 V EC027703
     K07C05R  C2007 02 08.24098 09 14 18.92 +15 53 08.6          17.3 V EC027703
     K07C05R  C2007 02 08.24221 09 14 21.37 +15 53 58.4          17.2 V EC027703
     K07C05R  C2007 02 08.24726 09 14 31.45 +15 57 22.9          17.2 V EC027G96
     K07C05R  C2007 02 08.27818 09 15 32.29 +16 18 03.1          17.3 V EC027703
     K07C05R  C2007 02 08.27872 09 15 33.33 +16 18 24.3          17.2 V EC027703
     K07C05R  C2007 02 08.27924 09 15 34.34 +16 18 45.2          17.2 V EC027703
     K07C05R  C2007 02 08.27977 09 15 35.38 +16 19 06.3          17.3 V EC027703
     K07C05R  C2007 02 08.33382 09 17 19.82 +16 54 17.1          17.2 V EC027703
     K07C05R  C2007 02 08.33424 09 17 20.54 +16 54 32.5          17.4 V EC027703
     K07C05R  C2007 02 08.33464 09 17 21.33 +16 54 48.7          17.2 V EC027703
     K07C05R  C2007 02 08.33506 09 17 22.12 +16 55 04.7          17.3 V EC027703
     K07C05R  C2007 02 08.39318 09 19 12.61 +17 31 33.0          17.0 V EC027703
     K07C05R  C2007 02 08.39359 09 19 13.26 +17 31 49.9          17.3 V EC027703
     K07C05R  C2007 02 08.39402 09 19 14.08 +17 32 05.8          17.6 V EC027703
     K07C05R  C2007 02 08.39442 09 19 14.88 +17 32 20.7          17.5 V EC027703
     K07C05R  C2007 02 08.44322 09 20 46.79 +18 01 57.7          17.2 V EC027703
     K07C05R  C2007 02 08.44363 09 20 47.64 +18 02 13.0          17.4 V EC027703
     K07C05R  C2007 02 08.44405 09 20 48.42 +18 02 28.3          17.2 V EC027703
     K07C05R  C2007 02 08.44447 09 20 49.15 +18 02 42.6          17.4 V EC027703

Observer details:
703 Catalina Sky Survey.  Observer R. E. Hill.  Measurers E. C. Beshore,
    E. J. Christensen, G. J. Garradd, A. R. Gibbs, A. D. Grauer, R. E. Hill,
    R. A. Kowalski, S. M. Larson, R. H. McNaught.  0.68-m Schmidt + CCD.
G96 Mt. Lemmon Survey.  Observer R. A. Kowalski.  Measurers E. C. Beshore,
    E. J. Christensen, G. J. Garradd, A. R. Gibbs, A. D. Grauer, R. E. Hill,
    R. A. Kowalski, S. M. Larson, R. H. McNaught.  1.5-m reflector + CCD.

Orbital elements:
2007 CR5                                                 Earth MOID = 0.0144 AU
Epoch 2007 Apr. 10.0 TT = JDT 2454200.5                 MPC
M  47.03664              (2000.0)            P               Q
n   0.47461151     Peri.  310.58896     -0.00622813     -0.98736545
a   1.6277106      Node   138.92536     +0.97476432     -0.04132874
e   0.4483610      Incl.   13.94469     +0.22314957     +0.15297515
P   2.08           H   25.4           G   0.15           U   9
Residuals in seconds of arc
070208 G96  0.1+  0.5-    070208 703  0.3-  0.3-    070208 703  0.4-  0.2+
070208 703  0.3+  1.0+    070208 703  0.4-  0.1-    070208 703  0.3-  0.2+
070208 G96  0.1+  0.2-    070208 703  0.3-  0.0     070208 703  0.4+  0.4+
070208 703  0.0   0.1-    070208 703  0.6+  0.4+    070208 703  0.6-  0.4-
070208 703  0.0   0.0     070208 703  0.6-  0.3-    070208 703  0.5+  0.2+
070208 703  0.0   0.1-    070208 703  0.2-  0.5+    070208 703  0.3+  0.5+
070208 G96  0.3+  0.1-    070208 703  0.4-  0.4+    070208 703  0.5-  0.3-
070208 703  0.1-  0.1-    070208 703  1.4+  1.5-

Ephemeris:
2007 CR5                 a,e,i = 1.63, 0.45, 14                  q = 0.8979
Date    TT    R. A. (2000) Decl.     Delta      r     Elong.  Phase     V
2007 02 09    09 37.72   +22 56.9    0.0244   1.011   171.7     8.1    17.9
2007 02 10    10 00.69   +28 58.1    0.0303   1.016   164.2    15.3    18.7
2007 02 11    10 17.39   +32 49.0    0.0366   1.021   159.2    20.0    19.3
2007 02 12    10 29.93   +35 24.9    0.0432   1.027   155.8    23.2    19.7
2007 02 13    10 39.60   +37 15.4    0.0499   1.032   153.3    25.4    20.1
2007 02 14    10 47.22   +38 36.6    0.0567   1.038   151.5    27.0    20.5
2007 02 15    10 53.35   +39 38.1    0.0636   1.043   150.1    28.2    20.8
2007 02 16    10 58.36   +40 25.7    0.0706   1.049   149.0    29.0    21.0
2007 02 17    11 02.49   +41 03.1    0.0776   1.055   148.1    29.7    21.3
2007 02 18    11 05.94   +41 32.8    0.0846   1.061   147.4    30.2    21.5
2007 02 19    11 08.85   +41 56.6    0.0917   1.066   146.8    30.5    21.7
2007 02 20    11 11.32   +42 15.7    0.0988   1.072   146.3    30.8    21.8
2007 02 21    11 13.43   +42 30.9    0.106    1.078   145.9    31.0    22.0
2007 02 22    11 15.24   +42 43.0    0.113    1.084   145.5    31.1    22.2
2007 02 23    11 16.80   +42 52.5    0.120    1.090   145.2    31.2    22.3
2007 02 24    11 18.14   +42 59.7    0.128    1.097   144.9    31.3    22.5
2007 02 25    11 19.31   +43 04.9    0.135    1.103   144.6    31.3    22.6
2007 02 26    11 20.33   +43 08.5    0.142    1.109   144.4    31.3    22.7
2007 02 27    11 21.21   +43 10.6    0.150    1.115   144.2    31.3    22.9
2007 02 28    11 21.98   +43 11.4    0.157    1.121   144.0    31.3    23.0
2007 03 01    11 22.66   +43 10.9    0.165    1.128   143.8    31.3    23.1

Timothy B. Spahr             (C) Copyright 2007 MPC           M.P.E.C. 2007-C27

Read MPEC 2007-C26 Read MPEC 2007-C28


Our Web policy. Index to the CBAT/MPC/ICQ pages.


Valid HTML 4.01!